Regional Weather Roundup
Issued by NWS Newport/Morehead, NC

Current Version | Previous Version | Text Only | Print | Product List | Glossary On
Versions: 1 2 3 4 5 6 7 8 9 10 11 12 13 14 15 16 17 18 19 20 21 22 23 24 25 26 27 28 29 30 31 32 33 34 35 36 37 38 39 40 41 42 43 44 45 46 47 48 49 50
000
ASUS42 KMHX 082313
RWRMHX
WEATHER ROUNDUP FOR EASTERN NORTH CAROLINA
NATIONAL WEATHER SERVICE NEWPORT/MOREHEAD CITY NC
600 PM EST MON FEB 08 2016

NOTE: "FAIR" INDICATES FEW OR NO CLOUDS BELOW 12,000 FEET
WITH NO SIGNIFICANT WEATHER AND/OR OBSTRUCTIONS TO VISIBILITY

NCZ015>017-031-032-045>047-102-103-090000-
NORTH COAST

CITY           SKY/WX    TMP DP  RH WIND       PRES   REMARKS
EDENTON        PTCLDY    46  37  72 E9        29.71F
ELIZABETH CITY CLOUDY    42  36  79 E13       29.73S
KITTY HAWK     CLOUDY    42  34  73 CALM      29.73S
MANTEO         MOCLDY    42  37  80 SE8       29.74F

$$

NCZ045>047-081-094-103-104-090000-
CENTRAL COAST

CITY           SKY/WX    TMP DP  RH WIND       PRES   REMARKS
FRISCO         PTCLDY    47  35  63 SE6       29.73F
SWANQUARTER      N/A     46 N/A N/A SE3       29.68S

$$

NCZ095-097-098-100-101-090000-
SOUTHERN COAST

CITY           SKY/WX    TMP DP  RH WIND       PRES   REMARKS
BEAUFORT       PTCLDY    48  39  71 S3        29.70F
CEDAR ISLAND     N/A     46 N/A N/A SE5       29.74F
JACKSONVILLE   CLOUDY    49  38  65 S8        29.68S
PINEY ISLAND   MOCLDY   N/A N/A N/A SE5       29.70F
WILMINGTON     CLOUDY    52  34  50 SW10      29.69S


$$

NCZ011>013-027>030-043-044-078>080-089-090>093-098-090000-
COASTAL PLAIN

CITY           SKY/WX    TMP DP  RH WIND       PRES   REMARKS
AHOSKIE        PTCLDY    47  30  51 SE3       29.68F
CLINTON        PTCLDY    51  37  57 S3        29.66S
ELIZABETHTOWN  CLOUDY    53  36  53 S6        29.66S
GOLDSBORO      PTCLDY    52  30  43 S3        29.65R
GREENVILLE     PTCLDY    52  32  46 SE6       29.69F
HAVELOCK       MOCLDY    48  36  63 SE3       29.70F
KENANSVILLE      N/A     50  32  50 CALM      29.68R
KINSTON        PTCLDY    50  36  57 S6        29.68R
NEW BERN       PTCLDY    48  34  58 S5        29.70S
RICHLANDS      CLOUDY    48  34  57 S7        29.68S
ROCKY MOUNT    MOCLDY    47  34  60 CALM      29.66R
WASHINGTON     PTCLDY    48  34  58 CALM      29.68S
WHITEVILLE     CLOUDY    53  36  52 S7        29.67S

$$

AMZ130-135-150-152-154-156-158-170-250-252-270-ANZ085-086-088-633-658-670-090000-
MARINE OBSERVATIONS

STATION/POSITION TIME  TEMP    WIND        PRES    WAVE   SWELL
                       AIR SEA DIR/SP/G            HT/PER HT/PER
                 (UTC) (F)     (DEG/KT/KT) (MB)    (FT/S) (FT/S)
CHESAPEAKE LIGHT 2300   42     100/ 12/ 13 1007.6
64 E VA BEACH    2250   44 52  310/  4/  8 1007.2   14/14  15/14
DUCK             2200   43     130/  7/  8 1006.8
2 E DUCK         2211      44                N/A    13/13  10/13
OREGON INLET     2200   43 45  110/  5/  7 1007.7
13E OREGON INLT  2300      47                N/A    16/17  15/17
HATTERAS CG      2200   48 51  170/  4/  6 1006.9
DIAMOND BUOY     2250   51 74   10/  2/  6 1007.2   10/13  10/13
CAPE LOOKOUT     NOT AVBL
BEAUFORT LAB     2200   50 46  180/  7/  8 1005.1
30 SE NEW RVR IN 2208   58 62              1005.8
30 SE NEW RVR IN 2225      62                N/A     6/13   3/13
27 SE WRIGHTSVLE 2208   56 61  250/ 21/ 29 1005.2
5 SE WRIGHTSVLE  2208   53 52  230/ 16/ 21 1005.6
225 S CAPE HAT   2250   63 69  250/ 21/ 27   N/A    13/15  11/15
41 SE CHARLESTON 2250   60 65  220/ 27/ 33 1005.8    8/ 7   3/11

$$



USA.gov is the U.S. government's official web portal to all federal, state and local government web resources and services.